Regional Weather Roundup
Issued by NWS Green Bay, WI

Home | Current Version | Previous Version | Graphics & Text | Print | Product List | Glossary Off
Versions: 1 2 3 4 5 6 7 8 9 10 11 12 13 14 15 16 17 18 19 20 21 22 23 24 25 26 27 28 29 30 31 32 33 34 35 36 37 38 39 40 41 42 43 44 45 46 47 48 49 50

000
ASUS43 KGRB 030210
RWRGRB

NORTH-CENTRAL AND NORTHEAST WISCONSIN REGIONAL WEATHER ROUNDUP
NATIONAL WEATHER SERVICE GREEN BAY WI
800 PM CST MON MAR 02 2015

WIZ005-009-010>012-018-019-030300-
NORTH CENTRAL WISCONSIN

CITY           SKY/WX    TMP DP  RH WIND       PRES   REMARKS
IRONWOOD       CLEAR     21   0  39 SW7       30.12F
MANITOWISH WTR PTCLDY    16  -2  46 S6        30.13F WCI   7
ARBOR VITAE    PTCLDY    19   3  49 S5        30.15F
EAGLE RIVER    CLEAR     17   1  49 CALM      30.15F
LAND O LAKES   CLEAR     18   2  50 S5        30.14F
RHINELANDER    PTCLDY    17   2  51 S5        30.17F WCI  10
PHILLIPS       CLOUDY    17   4  57 S7        30.15F WCI   7
ANTIGO         PTCLDY    13   2  63 S5        30.20F WCI   5
TOMAHAWK         N/A     16   3  56 CALM      30.18F
MERRILL        MOCLDY    16   5  61 CALM      30.19F
$$

WIZ013-073-030300-
NORTHEAST WISCONSIN

CITY           SKY/WX    TMP DP  RH WIND       PRES   REMARKS
IRON MOUNTAIN  CLEAR     21   5  50 S7        30.19
MARINETTE      CLEAR     19   7  58 S5        30.28F
OCONTO         PTCLDY    20  11  68 CALM      30.29F
$$

WIZ017-030-035>037-045-030300-
CENTRAL WISCONSIN

CITY           SKY/WX    TMP DP  RH WIND       PRES   REMARKS
MEDFORD        MOCLDY    18   4  53 SE6       30.17F WCI  10
WAUSAU         MOCLDY    20   3  48 SE5       30.19F
MOSINEE        NOT AVBL
MARSHFIELD     CLOUDY    22   8  55 S3        30.20F
WISC RAPIDS    CLOUDY    24   5  44 S6        30.25F
STEVENS POINT  CLOUDY    22   7  52 S3        30.24F
WAUPACA        CLOUDY    27  11  52 SE7       30.27F
SHAWANO          N/A     24  10  55 CALM      30.27F
CLINTONVILLE   MOCLDY    23  12  63 S7        30.26F
$$

WIZ038-039-048-051-030300-
FOX VALLEY

CITY           SKY/WX    TMP DP  RH WIND       PRES   REMARKS
NWS GREEN BAY  PTCLDY    24  13  62 S5        30.29F
APPLETON       MOCLDY    21  10  63 VRB3      30.28F
OSHKOSH        CLOUDY    24  13  62 S7        30.28F
FOND DU LAC    CLOUDY    25  11  55 S6        30.29F
$$

WIZ022-050-052-030300-
EAST CENTRAL WISCONSIN

CITY           SKY/WX    TMP DP  RH WIND       PRES   REMARKS
STURGEON BAY   PTCLDY    19   9  63 S7        30.31F
MANITOWOC      MOCLDY    24  17  74 S8        30.31F
SHEBOYGAN      CLOUDY    25  16  68 S9        30.30F
$$

LMZ563-521-522-541>543-030300-
LAKESHORE

STATION/POSITION TIME  TEMP    WIND        PRES    VSBY  WAVE
                       AIR SEA DIR/SP/G                  HT/PER
                 (UTC) (F)     (DEG/KT/KT) (MB)    (MI)  (FT/S)
SHEBOYGAN LKSHOR 0200   27     180/ 16/ 17 1027.3F
KEWAUNEE LKSHORE 0200   24                   N/A
TWO RIVERS CG    0100   21                 1030.4
NORTHPORT PIER   0200   21     180/  1/  7 1025.4F
SISTER BAY LKSHO 0200   20     190/  8/  9   N/A
CHAMBERS ISLAND  0200   21     150/  5/  9 1026.1F
MENOMINEE LKSHOR 0200   19                   N/A
$$


USA.gov is the U.S. government's official web portal to all federal, state and local government web resources and services.